Time,TemperatureF,DewpointF,PressureIn,WindDirection,WindDirectionDegrees,WindSpeedMPH,WindSpeedGustMPH,Humidity,HourlyPrecipIn,Conditions,Clouds,dailyrainin,SoftwareType,DateUTC
2013-04-11 00:02:00,24.0,16.0,30.13,South,182,0.0,4.0,72,0.00,,,0.02,,2013-04-11 06:02:00,
2013-04-11 00:12:00,24.0,16.0,30.13,South,182,0.0,4.0,72,0.00,,,0.02,,2013-04-11 06:12:00,
2013-04-11 00:22:00,23.0,15.0,30.11,South,182,0.0,4.0,72,0.00,,,0.02,,2013-04-11 06:22:00,
2013-04-11 00:32:00,23.0,16.0,30.10,South,178,1.0,6.0,73,0.00,,,0.02,,2013-04-11 06:32:00,
2013-04-11 00:42:00,23.0,16.0,30.10,South,178,1.0,6.0,73,0.00,,,0.02,,2013-04-11 06:42:00,
2013-04-11 00:52:00,23.0,16.0,30.10,South,180,0.0,3.0,73,0.00,,,0.02,,2013-04-11 06:52:00,
2013-04-11 01:02:00,23.0,16.0,30.09,South,180,0.0,2.0,73,0.00,,,0.02,,2013-04-11 07:02:00,
2013-04-11 01:12:00,23.0,16.0,30.09,South,180,0.0,2.0,73,0.00,,,0.02,,2013-04-11 07:12:00,
2013-04-11 01:22:00,23.0,16.0,30.08,South,172,0.0,4.0,74,0.00,,,0.02,,2013-04-11 07:22:00,
2013-04-11 01:32:00,23.0,16.0,30.07,SSW,202,0.0,3.0,73,0.00,,,0.02,,2013-04-11 07:32:00,
2013-04-11 01:42:00,23.0,16.0,30.07,SSW,202,0.0,3.0,73,0.00,,,0.02,,2013-04-11 07:42:00,
2013-04-11 01:52:00,23.0,16.0,30.06,SSW,202,0.0,0.0,73,0.00,,,0.02,,2013-04-11 07:52:00,
2013-04-11 02:03:00,23.0,16.0,30.05,SSW,202,0.0,0.0,75,0.00,,,0.02,,2013-04-11 08:03:00,
2013-04-11 02:12:00,23.0,16.0,30.05,SSW,202,0.0,0.0,75,0.00,,,0.02,,2013-04-11 08:12:00,
2013-04-11 02:22:00,22.0,16.0,30.04,SSW,202,0.0,0.0,76,0.00,,,0.02,,2013-04-11 08:22:00,
2013-04-11 02:32:00,22.0,16.0,30.03,SSW,202,0.0,0.0,77,0.00,,,0.02,,2013-04-11 08:32:00,
2013-04-11 02:42:00,22.0,16.0,30.03,SSW,202,0.0,0.0,77,0.00,,,0.02,,2013-04-11 08:42:00,
2013-04-11 02:52:00,21.0,16.0,30.01,SSW,202,0.0,0.0,79,0.00,,,0.02,,2013-04-11 08:52:00,
2013-04-11 03:02:00,21.0,16.0,30.02,SSW,202,0.0,0.0,80,0.00,,,0.02,,2013-04-11 09:02:00,
2013-04-11 03:12:00,21.0,16.0,30.02,SSW,202,0.0,0.0,80,0.00,,,0.02,,2013-04-11 09:12:00,
2013-04-11 03:22:00,21.0,16.0,30.02,SSW,202,0.0,0.0,82,0.00,,,0.02,,2013-04-11 09:22:00,
2013-04-11 03:33:00,23.0,18.0,30.00,North,5,0.0,3.0,81,0.00,,,0.02,,2013-04-11 09:33:00,
2013-04-11 03:43:00,23.0,18.0,30.00,North,5,0.0,3.0,81,0.00,,,0.02,,2013-04-11 09:43:00,
2013-04-11 03:52:00,23.0,18.0,30.00,North,355,0.0,5.0,81,0.00,,,0.02,,2013-04-11 09:52:00,
2013-04-11 04:02:00,22.0,17.0,29.99,North,355,1.0,5.0,81,0.00,,,0.02,,2013-04-11 10:02:00,
2013-04-11 04:12:00,22.0,17.0,29.99,North,355,0.0,1.0,81,0.00,,,0.02,,2013-04-11 10:12:00,
2013-04-11 04:23:00,22.0,17.0,29.99,North,355,0.0,1.0,81,0.00,,,0.02,,2013-04-11 10:23:00,
2013-04-11 04:32:00,22.0,17.0,29.99,WNW,293,0.0,2.0,82,0.00,,,0.02,,2013-04-11 10:32:00,
2013-04-11 04:42:00,22.0,17.0,29.99,WNW,293,0.0,2.0,82,0.00,,,0.02,,2013-04-11 10:42:00,
2013-04-11 04:52:00,22.0,17.0,29.98,WNW,293,0.0,1.0,82,0.00,,,0.02,,2013-04-11 10:52:00,
2013-04-11 05:02:00,22.0,17.0,29.98,WNW,293,0.0,1.0,82,0.00,,,0.02,,2013-04-11 11:02:00,
2013-04-11 05:12:00,22.0,17.0,29.97,NW,313,0.0,1.0,82,0.00,,,0.02,,2013-04-11 11:12:00,
2013-04-11 05:23:00,22.0,17.0,29.97,NW,313,0.0,0.0,82,0.00,,,0.02,,2013-04-11 11:23:00,
2013-04-11 05:32:00,22.0,17.0,29.96,NW,312,0.0,1.0,82,0.00,,,0.02,,2013-04-11 11:32:00,
2013-04-11 05:42:00,22.0,17.0,29.96,NW,312,0.0,1.0,82,0.00,,,0.02,,2013-04-11 11:42:00,
2013-04-11 05:52:00,22.0,17.0,29.95,SW,232,0.0,1.0,82,0.00,,,0.02,,2013-04-11 11:52:00,
2013-04-11 06:02:00,22.0,17.0,29.95,SW,232,0.0,0.0,82,0.00,,,0.02,,2013-04-11 12:02:00,
2013-04-11 06:12:00,22.0,17.0,29.95,SW,232,0.0,0.0,82,0.00,,,0.02,,2013-04-11 12:12:00,
2013-04-11 06:22:00,22.0,17.0,29.95,SW,232,0.0,0.0,82,0.00,,,0.02,,2013-04-11 12:22:00,
2013-04-11 06:32:00,21.0,17.0,29.94,SW,232,0.0,0.0,83,0.00,,,0.02,,2013-04-11 12:32:00,
2013-04-11 06:42:00,21.0,17.0,29.94,SW,232,0.0,0.0,83,0.00,,,0.02,,2013-04-11 12:42:00,
2013-04-11 06:52:00,21.0,17.0,29.94,SW,232,0.0,0.0,84,0.00,,,0.02,,2013-04-11 12:52:00,
2013-04-11 07:02:00,21.0,17.0,29.94,SW,232,0.0,0.0,85,0.00,,,0.02,,2013-04-11 13:02:00,
2013-04-11 07:12:00,21.0,17.0,29.94,SW,232,0.0,0.0,86,0.00,,,0.02,,2013-04-11 13:12:00,
2013-04-11 07:23:00,21.0,17.0,29.94,SW,232,0.0,0.0,86,0.00,,,0.02,,2013-04-11 13:23:00,
2013-04-11 07:32:00,22.0,18.0,29.95,SW,232,0.0,0.0,86,0.00,,,0.02,,2013-04-11 13:32:00,
2013-04-11 07:43:00,22.0,18.0,29.95,SW,232,0.0,0.0,86,0.00,,,0.02,,2013-04-11 13:43:00,
2013-04-11 07:53:00,23.0,19.0,29.95,SW,232,0.0,0.0,84,0.00,,,0.02,,2013-04-11 13:53:00,
2013-04-11 08:02:00,24.0,19.0,29.95,SW,232,0.0,0.0,81,0.00,,,0.02,,2013-04-11 14:02:00,
2013-04-11 08:12:00,24.0,19.0,29.95,SW,232,0.0,0.0,81,0.00,,,0.02,,2013-04-11 14:12:00,
2013-04-11 08:22:00,27.0,20.0,29.94,South,178,1.0,4.0,76,0.00,,,0.02,,2013-04-11 14:22:00,
2013-04-11 08:32:00,29.0,21.0,29.94,SSW,200,0.0,3.0,73,0.00,,,0.02,,2013-04-11 14:32:00,
2013-04-11 08:42:00,29.0,21.0,29.94,SSW,200,0.0,3.0,73,0.00,,,0.02,,2013-04-11 14:42:00,
2013-04-11 08:52:00,30.0,21.0,29.94,SSW,200,0.0,1.0,70,0.00,,,0.02,,2013-04-11 14:52:00,
2013-04-11 09:02:00,31.0,22.0,29.93,WSW,242,0.0,3.0,70,0.00,,,0.02,,2013-04-11 15:02:00,
2013-04-11 09:12:00,31.0,22.0,29.93,WSW,242,0.0,3.0,70,0.00,,,0.02,,2013-04-11 15:12:00,
2013-04-11 09:22:00,34.0,23.0,29.94,WSW,242,0.0,1.0,64,0.00,,,0.02,,2013-04-11 15:22:00,
2013-04-11 09:32:00,36.0,24.0,29.94,WSW,242,0.0,0.0,61,0.00,,,0.02,,2013-04-11 15:32:00,
2013-04-11 09:43:00,36.0,24.0,29.94,WSW,242,0.0,0.0,61,0.00,,,0.02,,2013-04-11 15:43:00,
2013-04-11 09:52:00,39.0,25.0,29.93,WSW,242,0.0,0.0,57,0.00,,,0.02,,2013-04-11 15:52:00,
2013-04-11 10:02:00,41.0,25.0,29.93,WSW,254,0.0,4.0,53,0.00,,,0.02,,2013-04-11 16:02:00,
2013-04-11 10:13:00,41.0,25.0,29.93,WSW,254,0.0,4.0,53,0.00,,,0.02,,2013-04-11 16:13:00,
2013-04-11 10:23:00,44.0,27.0,29.93,NNW,334,0.0,4.0,50,0.00,,,0.02,,2013-04-11 16:23:00,
2013-04-11 10:32:00,47.0,28.0,29.93,NE,53,0.0,4.0,47,0.00,,,0.02,,2013-04-11 16:32:00,
2013-04-11 10:42:00,47.0,28.0,29.93,NE,53,0.0,4.0,47,0.00,,,0.02,,2013-04-11 16:42:00,
2013-04-11 10:52:00,48.0,28.0,29.92,NNW,331,0.0,4.0,45,0.00,,,0.02,,2013-04-11 16:52:00,
2013-04-11 11:02:00,50.0,27.0,29.93,NNE,30,2.0,6.0,41,0.00,,,0.02,,2013-04-11 17:02:00,
2013-04-11 11:12:00,50.0,27.0,29.93,NNE,30,2.0,6.0,41,0.00,,,0.02,,2013-04-11 17:12:00,
2013-04-11 11:23:00,52.0,28.0,29.93,North,5,2.0,5.0,39,0.00,,,0.02,,2013-04-11 17:23:00,
2013-04-11 11:32:00,52.0,27.0,29.93,WNW,300,2.0,10.0,38,0.00,,,0.01,,2013-04-11 17:32:00,
2013-04-11 11:43:00,52.0,27.0,29.93,WNW,300,2.0,10.0,38,0.00,,,0.01,,2013-04-11 17:43:00,
2013-04-11 11:52:00,51.0,27.0,29.92,West,265,4.0,12.0,39,0.00,,,0.01,,2013-04-11 17:52:00,
2013-04-11 12:03:00,51.0,27.0,29.92,NNW,333,5.0,11.0,39,0.00,,,0.01,,2013-04-11 18:03:00,
2013-04-11 12:13:00,51.0,27.0,29.92,NNW,333,5.0,11.0,39,0.00,,,0.01,,2013-04-11 18:13:00,
2013-04-11 12:23:00,51.0,26.0,29.92,NW,317,5.0,12.0,38,0.00,,,0.01,,2013-04-11 18:23:00,
2013-04-11 12:33:00,52.0,28.0,29.92,NNE,22,4.0,11.0,39,0.00,,,0.01,,2013-04-11 18:33:00,
2013-04-11 12:42:00,52.0,28.0,29.92,NNE,22,4.0,11.0,39,0.00,,,0.01,,2013-04-11 18:42:00,
2013-04-11 12:52:00,53.0,29.0,29.91,North,5,5.0,10.0,39,0.00,,,0.01,,2013-04-11 18:52:00,
2013-04-11 13:03:00,53.0,27.0,29.91,East,92,5.0,8.0,36,0.00,,,0.01,,2013-04-11 19:03:00,
2013-04-11 13:14:00,53.0,27.0,29.91,East,92,5.0,8.0,36,0.00,,,0.01,,2013-04-11 19:14:00,
2013-04-11 13:22:00,54.0,28.0,29.91,NNE,20,4.0,10.0,37,0.00,,,0.01,,2013-04-11 19:22:00,
2013-04-11 13:32:00,54.0,28.0,29.90,East,86,4.0,10.0,36,0.00,,,0.00,,2013-04-11 19:32:00,
2013-04-11 13:43:00,54.0,28.0,29.90,East,86,4.0,10.0,36,0.00,,,0.00,,2013-04-11 19:43:00,
2013-04-11 13:52:00,54.0,26.0,29.90,NNE,29,3.0,11.0,34,0.00,,,0.00,,2013-04-11 19:52:00,
2013-04-11 14:02:00,53.0,27.0,29.90,NNE,28,6.0,14.0,37,0.00,,,0.00,,2013-04-11 20:02:00,
2013-04-11 14:13:00,53.0,27.0,29.90,NNE,28,6.0,14.0,37,0.00,,,0.00,,2013-04-11 20:13:00,
2013-04-11 14:22:00,52.0,28.0,29.91,North,10,4.0,13.0,39,0.00,,,0.00,,2013-04-11 20:22:00,
2013-04-11 14:33:00,51.0,29.0,29.91,NE,45,6.0,16.0,42,0.00,,,0.00,,2013-04-11 20:33:00,
2013-04-11 14:42:00,51.0,29.0,29.91,NE,45,6.0,16.0,42,0.00,,,0.00,,2013-04-11 20:42:00,
2013-04-11 14:52:00,51.0,30.0,29.91,NE,46,8.0,22.0,44,0.00,,,0.00,,2013-04-11 20:52:00,
2013-04-11 15:02:00,50.0,30.0,29.90,NNE,22,6.0,14.0,46,0.00,,,0.00,,2013-04-11 21:02:00,
2013-04-11 15:12:00,50.0,30.0,29.90,NNE,22,6.0,14.0,46,0.00,,,0.00,,2013-04-11 21:12:00,
2013-04-11 15:22:00,49.0,31.0,29.90,NE,47,7.0,17.0,49,0.00,,,0.00,,2013-04-11 21:22:00,
2013-04-11 15:33:00,49.0,32.0,29.90,NE,43,8.0,19.0,52,0.00,,,0.00,,2013-04-11 21:33:00,
2013-04-11 15:42:00,49.0,32.0,29.90,NE,43,8.0,19.0,52,0.00,,,0.00,,2013-04-11 21:42:00,
2013-04-11 15:53:00,49.0,33.0,29.90,East,101,6.0,15.0,54,0.00,,,0.00,,2013-04-11 21:53:00,
2013-04-11 16:03:00,48.0,34.0,29.90,NNE,28,6.0,15.0,58,0.00,,,0.00,,2013-04-11 22:03:00,
2013-04-11 16:13:00,48.0,34.0,29.90,NNE,28,6.0,15.0,58,0.00,,,0.00,,2013-04-11 22:13:00,
2013-04-11 16:23:00,48.0,33.0,29.89,NNE,18,7.0,18.0,56,0.00,,,0.00,,2013-04-11 22:23:00,
2013-04-11 16:33:00,49.0,34.0,29.88,NNE,17,6.0,16.0,55,0.00,,,0.00,,2013-04-11 22:33:00,
2013-04-11 16:44:00,49.0,34.0,29.88,NNE,17,6.0,16.0,55,0.00,,,0.00,,2013-04-11 22:44:00,
2013-04-11 16:52:00,49.0,33.0,29.88,NNE,21,5.0,11.0,54,0.00,,,0.00,,2013-04-11 22:52:00,
2013-04-11 17:03:00,49.0,33.0,29.88,NE,34,5.0,13.0,53,0.00,,,0.00,,2013-04-11 23:03:00,
2013-04-11 17:12:00,49.0,33.0,29.88,NE,34,5.0,13.0,53,0.00,,,0.00,,2013-04-11 23:12:00,
2013-04-11 17:23:00,49.0,34.0,29.89,East,81,3.0,11.0,55,0.00,,,0.00,,2013-04-11 23:23:00,
2013-04-11 17:32:00,48.0,34.0,29.90,NNE,26,1.0,6.0,57,0.00,,,0.00,,2013-04-11 23:32:00,
2013-04-11 17:42:00,48.0,34.0,29.90,NNE,26,1.0,6.0,57,0.00,,,0.00,,2013-04-11 23:42:00,
2013-04-11 17:53:00,48.0,33.0,29.89,ESE,110,2.0,7.0,56,0.00,,,0.00,,2013-04-11 23:53:00,
2013-04-11 18:02:00,48.0,33.0,29.89,SE,125,1.0,8.0,55,0.00,,,0.00,,2013-04-12 00:02:00,
2013-04-11 18:12:00,48.0,33.0,29.89,SE,125,1.0,8.0,55,0.00,,,0.00,,2013-04-12 00:12:00,
2013-04-11 18:22:00,48.0,33.0,29.90,East,94,1.0,6.0,56,0.00,,,0.00,,2013-04-12 00:22:00,
2013-04-11 18:32:00,48.0,33.0,29.89,ESE,107,4.0,9.0,56,0.00,,,0.00,,2013-04-12 00:32:00,
2013-04-11 18:42:00,48.0,33.0,29.89,ESE,107,4.0,9.0,56,0.00,,,0.00,,2013-04-12 00:42:00,
2013-04-11 18:52:00,47.0,33.0,29.89,ESE,106,4.0,11.0,59,0.00,,,0.00,,2013-04-12 00:52:00,
2013-04-11 19:02:00,46.0,34.0,29.89,ESE,114,5.0,9.0,62,0.00,,,0.00,,2013-04-12 01:02:00,
2013-04-11 19:12:00,46.0,34.0,29.89,ESE,114,5.0,9.0,62,0.00,,,0.00,,2013-04-12 01:12:00,
2013-04-11 19:22:00,45.0,33.0,29.89,ESE,115,2.0,7.0,62,0.00,,,0.00,,2013-04-12 01:22:00,
2013-04-11 19:32:00,45.0,33.0,29.89,ESE,117,2.0,7.0,62,0.00,,,0.00,,2013-04-12 01:32:00,
2013-04-11 19:42:00,45.0,33.0,29.89,ESE,117,2.0,7.0,62,0.00,,,0.00,,2013-04-12 01:42:00,
2013-04-11 19:52:00,45.0,33.0,29.90,ESE,111,0.0,3.0,63,0.00,,,0.00,,2013-04-12 01:52:00,
2013-04-11 20:03:00,45.0,33.0,29.90,ESE,123,2.0,5.0,63,0.00,,,0.00,,2013-04-12 02:03:00,
2013-04-11 20:12:00,45.0,33.0,29.90,ESE,123,2.0,5.0,63,0.00,,,0.00,,2013-04-12 02:12:00,
2013-04-11 20:22:00,45.0,34.0,29.90,ESE,123,2.0,4.0,64,0.00,,,0.00,,2013-04-12 02:22:00,
2013-04-11 20:32:00,44.0,33.0,29.91,SE,133,0.0,5.0,65,0.00,,,0.00,,2013-04-12 02:32:00,
2013-04-11 20:42:00,44.0,33.0,29.91,SE,133,0.0,5.0,65,0.00,,,0.00,,2013-04-12 02:42:00,
2013-04-11 20:52:00,44.0,34.0,29.92,ESE,112,1.0,7.0,67,0.00,,,0.00,,2013-04-12 02:52:00,
2013-04-11 21:02:00,44.0,34.0,29.91,ESE,119,2.0,5.0,69,0.00,,,0.00,,2013-04-12 03:02:00,
2013-04-11 21:12:00,44.0,34.0,29.91,ESE,119,2.0,5.0,69,0.00,,,0.00,,2013-04-12 03:12:00,
2013-04-11 21:22:00,44.0,34.0,29.91,ESE,119,2.0,5.0,69,0.00,,,0.00,,2013-04-12 03:22:00,
2013-04-11 21:33:00,42.0,33.0,29.92,ESE,109,0.0,7.0,71,0.00,,,0.00,,2013-04-12 03:33:00,
2013-04-11 21:43:00,42.0,33.0,29.92,ESE,109,0.0,7.0,71,0.00,,,0.00,,2013-04-12 03:43:00,
2013-04-11 21:53:00,42.0,33.0,29.93,ESE,102,0.0,0.0,71,0.00,,,0.00,,2013-04-12 03:53:00,
2013-04-11 22:03:00,42.0,33.0,29.93,SSE,155,0.0,0.0,71,0.00,,,0.00,,2013-04-12 04:03:00,
2013-04-11 22:13:00,42.0,33.0,29.93,SSE,155,0.0,0.0,71,0.00,,,0.00,,2013-04-12 04:13:00,
2013-04-11 22:23:00,42.0,33.0,29.93,SSE,147,0.0,0.0,71,0.00,,,0.00,,2013-04-12 04:23:00,
2013-04-11 22:33:00,41.0,33.0,29.94,ESE,103,0.0,0.0,72,0.00,,,0.00,,2013-04-12 04:33:00,
2013-04-11 22:43:00,41.0,33.0,29.94,ESE,103,0.0,0.0,72,0.00,,,0.00,,2013-04-12 04:43:00,
2013-04-11 22:52:00,41.0,33.0,29.94,ESE,103,0.0,0.0,73,0.00,,,0.00,,2013-04-12 04:52:00,
2013-04-11 23:03:00,41.0,33.0,29.94,ESE,109,0.0,0.0,72,0.00,,,0.00,,2013-04-12 05:03:00,
2013-04-11 23:12:00,41.0,33.0,29.94,ESE,109,0.0,0.0,72,0.00,,,0.00,,2013-04-12 05:12:00,
2013-04-11 23:23:00,41.0,33.0,29.93,ESE,109,0.0,0.0,73,0.00,,,0.00,,2013-04-12 05:23:00,
2013-04-11 23:32:00,41.0,33.0,29.94,ESE,104,4.0,7.0,73,0.00,,,0.00,,2013-04-12 05:32:00,
2013-04-11 23:42:00,41.0,33.0,29.94,ESE,104,4.0,7.0,73,0.00,,,0.00,,2013-04-12 05:42:00,
2013-04-11 23:52:00,41.0,33.0,29.94,SE,143,1.0,5.0,72,0.00,,,0.00,,2013-04-12 05:52:00,